Tucumcari, NM

8:40 AM MDT on August 26, 2016 (GMT -0600)
Tucumcari Municipal

Weather History for KTCC - July, 2013

Change the Weather History Date:

Friday, July 19, 2013

  Actual Average Record
Temperature  
Mean Temperature 78 °F -  
Max Temperature 91 °F 93 °F 105 °F (1927)
Min Temperature 66 °F 65 °F 56 °F (1960)
Cooling Degree Days 13    
Growing Degree Days 28 (Base 50)    
Moisture  
Dew Point 59 °F    
Average Humidity 54    
Maximum Humidity 84    
Minimum Humidity 30    
Precipitation  
Precipitation 0.00 in - - ()
Sea Level Pressure  
Sea Level Pressure 29.90 in    
Wind  
Wind Speed 11 mph (SW)    
Max Wind Speed 16 mph    
Max Gust Speed 22 mph    
Visibility 10 miles    
Events      
Averages and records for this station are not official NWS values.
T = Trace of Precipitation, MM = Missing Value Source: NWS Daily Summary

Daily Weather History Graph

Daily Weather History Graph

Search for Another Location

Airport or City:

Trip Planner

Search our weather history database for the weather conditions in past years. The results will help you decide how hot, cold, wet, or windy it might be!

Date:

Astronomy

Jul. 19, 2013 Rise Set
Actual Time 5:54 AM MDT 8:06 PM MDT
Civil Twilight 5:25 AM MDT 8:35 PM MDT
Nautical Twilight 4:50 AM MDT 9:10 PM MDT
Astronomical Twilight 4:11 AM MDT 9:48 PM MDT
Moon 5:12 PM MDT (7/19) 2:36 AM MDT (7/19)
Length of Visible Light 15h 10m
Length of Day
14h 12m
Waxing Gibbous, 87% of the Moon is Illuminated
Jul 19
Waxing Gibbous
Jul 22
Full
Jul 29
Last Quarter
Aug 6
New
Aug 14
First Quarter

Hourly Weather History & Observations

Time (MDT) Temp. Heat Index Dew Point Humidity Pressure Visibility Wind Dir Wind Speed Gust Speed Precip Events Conditions
12:53 AM 72.0 °F - 61.0 °F 68% 29.96 in 10.0 mi SSW 11.5 mph - N/A   Clear
1:53 AM 70.0 °F - 61.0 °F 73% 29.96 in 10.0 mi SSW 11.5 mph - N/A   Clear
2:53 AM 69.1 °F - 61.0 °F 75% 29.96 in 10.0 mi WSW 8.1 mph - N/A   Clear
3:53 AM 68.0 °F - 61.0 °F 78% 29.96 in 10.0 mi SSW 6.9 mph - N/A   Clear
4:53 AM 66.9 °F - 61.0 °F 81% 29.96 in 10.0 mi SSW 5.8 mph - N/A   Clear
5:53 AM 66.9 °F - 62.1 °F 84% 29.97 in 10.0 mi SW 6.9 mph - N/A   Clear
6:53 AM 69.1 °F - 62.1 °F 78% 29.96 in 10.0 mi SSW 8.1 mph - N/A   Clear
7:53 AM 73.0 °F - 62.1 °F 68% 29.97 in 10.0 mi SW 15.0 mph - N/A   Clear
8:53 AM 75.9 °F - 62.1 °F 62% 29.96 in 10.0 mi SW 16.1 mph - N/A   Partly Cloudy
9:53 AM 79.0 °F - 61.0 °F 54% 29.95 in 10.0 mi WSW 11.5 mph 20.7 mph N/A   Clear
10:53 AM 82.9 °F 83.2 °F 60.1 °F 46% 29.94 in 10.0 mi SW 13.8 mph 21.9 mph N/A   Clear
11:53 AM 84.0 °F 84.0 °F 60.1 °F 44% 29.92 in 10.0 mi SW 13.8 mph - N/A   Partly Cloudy
12:53 PM 86.0 °F 85.0 °F 57.9 °F 38% 29.91 in 10.0 mi SW 10.4 mph 20.7 mph N/A   Partly Cloudy
1:53 PM 88.0 °F 86.9 °F 57.9 °F 36% 29.89 in 10.0 mi SW 12.7 mph - N/A   Scattered Clouds
2:53 PM 88.0 °F 86.5 °F 55.9 °F 34% 29.87 in 10.0 mi SW 16.1 mph - N/A   Partly Cloudy
3:53 PM 90.0 °F 88.1 °F 55.9 °F 31% 29.84 in 10.0 mi SW 10.4 mph 21.9 mph N/A   Scattered Clouds
4:53 PM 90.0 °F 87.9 °F 55.0 °F 30% 29.81 in 10.0 mi SW 15.0 mph - N/A   Clear
5:53 PM 90.0 °F 87.9 °F 55.0 °F 30% 29.80 in 10.0 mi SSW 13.8 mph - N/A   Clear
6:53 PM 86.0 °F 84.5 °F 55.0 °F 35% 29.81 in 10.0 mi SW 11.5 mph - N/A   Clear
7:53 PM 84.0 °F 83.0 °F 55.9 °F 38% 29.82 in 10.0 mi SSW 12.7 mph - N/A   Clear
8:53 PM 80.1 °F 80.4 °F 57.0 °F 45% 29.84 in 10.0 mi SW 5.8 mph - N/A   Clear
9:53 PM 78.1 °F - 57.0 °F 48% 29.86 in 10.0 mi SW 8.1 mph - N/A   Clear
10:53 PM 75.9 °F - 57.9 °F 54% 29.88 in 10.0 mi SSW 8.1 mph - N/A   Clear
11:53 PM 73.9 °F - 57.9 °F 57% 29.91 in 10.0 mi SSW 5.8 mph - N/A   Clear